Home   Weather   Charlotte   Past weeks
Flag for USA

Past Weather in Charlotte, North Carolina, USA — Yesterday and Last 2 Weeks

Now
46 °F

Clear.


Feels Like: 41 °F
Forecast: 63 / 41 °F
Wind: 12 mph from Northwest

Location: Charlotte / Douglas International Airport

Current Time: Mar 22, 2019 at 2:18:29 am

Latest Report: Mar 22, 2019 at 12:52 am


Visibility: 10 mi

Pressure: 29.85 "Hg

Humidity: 66%

Dew Point: 35 °F

Location of CharlotteLocation

Past Weather in Charlotte — Graph

°F

Charlotte Temperature Yesterday

Maximum temperature yesterday: 60 °F (at 4:52 pm)
Minimum temperature yesterday: 45 °F (at 12:52 am)
Average temperature yesterday: 50 °F

High & Low Weather Summary for the Past Weeks

 TemperatureHumidityPressure
High75 °F (Mar 14, 4:52 pm)97% (Mar 9, 8:18 am)30.46 "Hg (Mar 9, 8:18 am)
Low31 °F (Mar 20, 4:52 am)18% (Mar 12, 4:52 pm)29.76 "Hg (Mar 21, 5:52 pm)
Average51 °F58%30.18 "Hg
* Reported Mar 6 11:52 pm — Mar 22 12:52 am, Charlotte. Weather by CustomWeather, © 2019

Note: Actual official high and low records may vary slightly from our data, if they occured in-between our weather recording intervals... More about our weather records

Advertising

Charlotte Weather History for the Previous 24 Hours

Scroll right to see more
 ConditionsComfort  
Time TempWeatherWind HumidityBarometerVisibility
12:52 am
Fri, Mar 22
46 °FClear.12 mph66%29.85 "Hg10 mi
11:52 pm
Thu, Mar 21
46 °FPassing clouds.6 mph63%29.85 "Hg10 mi
10:52 pm45 °FPassing clouds.5 mph71%29.84 "Hg10 mi
9:52 pm46 °FPartly cloudy.5 mph77%29.84 "Hg10 mi
8:52 pm47 °FMostly cloudy.5 mph80%29.83 "Hg10 mi
6:52 pm53 °FLight rain. Overcast.14 mph64%29.80 "Hg7 mi
5:52 pm59 °FMostly cloudy.9 mph39%29.76 "Hg10 mi
4:52 pm60 °FCloudy.10 mph38%29.77 "Hg10 mi
3:52 pm59 °FMostly cloudy.9 mph41%29.79 "Hg10 mi
2:52 pm58 °FLight rain. Mostly cloudy.10 mph41%29.81 "Hg10 mi
1:52 pm59 °FMostly cloudy.13 mph35%29.83 "Hg10 mi
12:52 pm59 °FMostly cloudy.7 mph44%29.85 "Hg10 mi
11:52 am59 °FBroken clouds.6 mph46%29.88 "Hg10 mi
10:52 am55 °FPartly sunny.6 mph51%29.90 "Hg10 mi
9:52 am52 °FPartly sunny.3 mph61%29.91 "Hg10 mi
8:52 am49 °FBroken clouds.3 mph77%29.92 "Hg9 mi
7:52 am46 °FPartly sunny.5 mph83%29.93 "Hg10 mi
6:52 am45 °FFog.5 mph90%29.93 "Hg6 mi
6:16 am46 °FFog.6 mph89%29.94 "Hg6 mi
5:52 am46 °FFog.5 mph89%29.93 "Hg6 mi
4:52 am46 °FLow clouds.5 mph93%29.95 "Hg7 mi
3:59 am45 °FFog.8 mph93%29.98 "Hg4 mi
2:52 am46 °FFog.6 mph93%30.00 "Hg3 mi
2:17 am46 °FFog.6 mph93%30.03 "Hg3 mi
Weather by CustomWeather, © 2019

See weather overview